AirNav   Pilot Hours Calculator
 
 1510 users online  

7FL4 Haller Airpark
Green Cove Springs, Florida, USA

GOING TO GREEN COVE SPRINGS?


FAA INFORMATION EFFECTIVE 21 APRIL 2022

Location

FAA Identifier: 7FL4
Lat/Long: 29-54-10.8740N 081-41-09.3220W
29-54.181233N 081-41.155367W
29.9030206,-81.6859228
(estimated)
Elevation: 75 ft. / 22.9 m (surveyed)
Variation: 03W (1985)
From city: 5 miles S of GREEN COVE SPRINGS, FL
Time zone: UTC -4 (UTC -5 during Standard Time)
Zip code: 32043

Airport Operations

Airport use: Private use. Permission required prior to landing
Activation date: 07/1979
Control tower: no
ARTCC: JACKSONVILLE CENTER
FSS: GAINESVILLE FLIGHT SERVICE STATION
Attendance: CONTINUOUS
Wind indicator: yes
Segmented circle: no

Airport Communications

WX AWOS-3 at 28J (15 nm S): 119.925 (386-312-2212)
WX AWOS-3PT at SGJ (18 nm E): 119.625 (904-824-7084)
WX AWOS-3 at 42J (19 nm W): 124.275 (352-473-8273)
WX AWOS-3 at NIP (20 nm N): 119.275

Nearby radio navigation aids

VOR radial/distance  VOR name  Freq  Var
SGJr266/18.8ST AUGUSTINE VOR/DME109.4006W
CRGr202/27.7CRAIG VORTAC114.5003W
GNVr072/33.1GATORS VORTAC116.2004W

 
NDB name  Hdg/Dist  Freq  Var  ID
REYNOLDS208/4.133807WRYD .-. -.-- -..

Airport Services

Runway Information

Runway 18/36

Dimensions: 2600 x 72 ft. / 792 x 22 m
Surface: turf
RUNWAY 18  RUNWAY 36
Traffic pattern: leftleft

Airport Ownership and Management from official FAA records

Ownership: Privately-owned
Owner: T&G AERO INC.
5289 AIRPARK LOOP WEST
GREEN COVE SPRINGS, FL 32043
Phone (904) 874-3303
Manager: DON YOAKLEY
5529 MILLIE WAY
GREEN COVE SPRINGS, FL 32043
Phone 904-535-3233

Airport Operational Statistics

Aircraft based on the field: 46
Single engine airplanes: 43
Multi engine airplanes: 1
Ultralights: 2
    

Additional Remarks

660 FT OVRN N & S RWY END.
FOR CD CTC JACKSONVILLE APCH AT 904-741-0284.
OVHD 360 PAT AVBL WHEN STD ACFT INTVL ENSURED.
RDO CTL MODEL ACFT OPS S OVRN.
NON RDO ACFT OPS & WILDLIFE INVOF ARPT.
LOW LVL FLT OVR HOUSES NA.

Instrument Procedures

There are no published instrument procedures at 7FL4.

Some nearby airports with instrument procedures:

28J - Palatka Municipal Airport - Lt. Kay Larkin Field (15 nm S)
KSGJ - Northeast Florida Regional Airport (18 nm E)
42J - Keystone Heights Airport (19 nm W)
KNIP - Jacksonville Naval Air Station (Towers Field) (20 nm N)
KVQQ - Cecil Airport (21 nm NW)
 
Loc | Ops | Rwys | IFR | FBO | Links
Com | Nav | Svcs | Stats | Notes
Area around 7FL4 (Haller Airpark)
 
Road maps at: MapQuest Bing Google
 
Aerial photo
WARNING: Photo may not be current or correct
Aerial photo of 7FL4 (Haller Airpark)
Photo by Dave Dollarhide
Photo taken 01-Sep-2005
looking north to south

Do you have a better or more recent aerial photo of Haller Airpark that you would like to share? If so, please send us your photo.

 
Sectional chart

 
Airport distance calculator
Flying to Haller Airpark? Find the distance to fly.

From to 7FL4

Sunrise and sunset
Times for 17-May-2022
 Local
(UTC-4)
 Zulu
(UTC)
Morning civil twilight06:0710:07
Sunrise06:3310:33
Sunset20:1300:13
Evening civil twilight20:3900:39

Current date and time
Zulu (UTC)  17-May-2022 21:45:26
Local (UTC-4)  17-May-2022 17:45:26
 
METAR
K28J 
15nm S 
172135Z AUTO 14008G14KT 9SM BKN060 26/19 A2992 RMK AO2
KNIP 
19nm N 
172053Z 11012KT 10SM SCT080 BKN250 31/19 A2992 RMK AO2 SLP128 T03110194 56014
K42J 
19nm W 
172135Z AUTO 26006KT 10SM CLR 31/16 A2993 RMK A01
KSGJ 
20nm E 
172056Z 13009KT 10SM CLR 28/23 A2995 RMK AO2 SLP139 T02780228 58011
KVQQ 
21nm NW 
172050Z 28006G12KT 10SM SCT070 33/18 A2992
KHEG 
23nm N 
172135Z AUTO 11010G16KT 080V140 10SM CLR 32/19 A2993 RMK AO2
KCRG 
27nm N 
172053Z 12007KT 10SM CLR 29/19 A2993 RMK AO2 SLP134 T02940189 55009
TAF
KNIP 
19nm N 
1715/1815 33008KT 9999 SCT050 SCT250 QNH2990INS FM180200 11006KT 9999 SCT030 BKN250 QNH2995INS FM180800 VRB04KT 9999 FEW040 FEW250 QNH2999INS T32/1720Z T21/1811Z FN20083
KSGJ 
20nm E 
171949Z 1720/1818 11010KT P6SM FEW045 SCT150 BKN250 FM180100 14006KT P6SM SCT045 SCT250 FM180300 VRB04KT P6SM FEW045 SCT100 FM181600 11008KT P6SM SCT050 BKN250
KVQQ 
21nm NW 
172027Z 1720/1818 27007KT P6SM SCT070 BKN200 FM180000 11005KT P6SM SCT045 SCT120 FM180200 VRB03KT P6SM SCT040 BKN250 FM180600 VRB03KT 5SM BR FEW040 SCT250 FM181400 13004KT P6SM FEW050 SCT250
NOTAMs
Click for the latest NOTAMs
NOTAMs are issued by the DoD/FAA and will open in a separate window not controlled by AirNav.

 

 
 

Would you like to see your business listed on this page?

 If your business provides an interesting product or service to pilots, flight crews, aircraft, or users of the Haller Airpark, you should consider listing it here.  To start the listing process, click on the button below
 
Add a business
 

Other Pages about Haller Airpark

Update a link
 
Copyright © AirNav, LLC. All rights reserved. Privacy Policy  Contact